�N����,����,�~����,�C��,���x,�C��,����,���ϕ���,�ő�u�ԕ���,�ő厞����,���˗�,�I�_���x,�n�����x,�ő啗���N��,DTYPE
"16/04/21","00:10",0.0,12.9,81.9,1016.8,319.0,1.3,2.4,336.7,0.00,9.9,15.4,"00:08:56",1
"16/04/21","00:20",0.0,12.9,82.1,1016.8,323.5,1.2,1.9,311.1,0.00,10.0,15.3,"00:10:16",1
"16/04/21","00:30",0.0,12.8,82.7,1016.8,309.3,1.1,1.7,321.8,0.00,10.0,15.4,"00:27:52",1
"16/04/21","00:40",0.0,12.7,83.3,1016.8,306.6,0.8,1.3,296.3,0.00,10.0,15.4,"00:34:40",1
"16/04/21","00:50",0.0,12.6,84.1,1016.6,299.9,0.7,1.7,323.8,0.00,10.0,15.3,"00:41:44",1
"16/04/21","01:00",0.0,12.5,85.0,1016.1,290.6,1.1,1.7,317.3,0.00,10.1,15.3,"00:51:12",1
"16/04/21","01:10",0.0,12.6,84.9,1015.9,320.1,1.3,1.9,327.0,0.00,10.2,15.2,"01:06:56",1
"16/04/21","01:20",0.0,12.7,85.0,1015.6,299.7,1.0,1.7,323.8,0.00,10.3,15.2,"01:15:04",1
"16/04/21","01:30",0.0,12.7,84.6,1015.4,298.3,1.0,1.7,321.6,0.00,10.2,15.0,"01:21:36",1
"16/04/21","01:40",0.0,12.8,84.7,1014.7,310.6,1.0,2.0,317.4,0.00,10.3,15.2,"01:35:52",1
"16/04/21","01:50",0.0,12.8,85.3,1015.2,315.8,1.6,2.7,328.0,0.00,10.4,15.2,"01:48:32",1
"16/04/21","02:00",0.0,13.0,84.0,1015.9,279.8,1.6,2.5,312.3,0.00,10.4,15.1,"01:50:24",1
"16/04/21","02:10",0.0,13.4,82.6,1016.4,308.5,1.6,2.5,306.9,0.00,10.5,15.2,"02:01:36",1
"16/04/21","02:20",0.0,13.4,82.9,1015.9,330.3,1.5,2.1,321.6,0.00,10.6,15.0,"02:16:16",1
"16/04/21","02:30",0.0,13.1,83.5,1015.6,268.6,0.8,1.9,334.3,0.00,10.4,15.1,"02:20:08",1
"16/04/21","02:40",0.0,12.9,83.7,1015.4,313.3,1.5,2.2,325.2,0.00,10.3,14.9,"02:35:28",1
"16/04/21","02:50",0.0,12.8,84.3,1015.2,328.9,1.5,2.2,335.6,0.00,10.3,15.0,"02:44:24",1
"16/04/21","03:00",0.0,12.4,85.3,1015.4,289.6,1.0,1.3,313.7,0.00,10.0,15.0,"02:50:32",1
"16/04/21","03:10",0.0,12.1,86.2,1015.2,276.8,1.0,1.7,319.6,0.00,9.9,14.9,"03:09:20",1
"16/04/21","03:20",0.0,12.1,86.6,1014.9,292.7,1.1,1.6,302.9,0.00,10.0,14.8,"03:11:52",1
"16/04/21","03:30",0.0,12.2,86.6,1014.9,293.9,1.2,1.8,322.1,0.00,10.1,14.8,"03:22:32",1
"16/04/21","03:40",0.0,12.4,85.9,1014.7,314.6,1.2,1.6,320.1,0.00,10.1,14.8,"03:37:20",1
"16/04/21","03:50",0.0,12.4,86.1,1014.7,327.8,1.3,1.9,325.6,0.00,10.2,14.8,"03:43:28",1
"16/04/21","04:00",0.0,12.2,86.6,1014.5,293.2,1.2,1.6,322.5,0.00,10.1,14.8,"03:57:52",1
"16/04/21","04:10",0.0,12.2,86.8,1014.9,296.3,1.2,1.8,325.3,0.00,10.1,14.8,"04:00:48",1
"16/04/21","04:20",0.0,12.2,86.9,1014.9,310.4,1.2,1.9,320.0,0.00,10.1,14.7,"04:17:04",1
"16/04/21","04:30",0.0,12.1,87.2,1014.7,310.2,1.1,1.8,314.0,0.00,10.1,14.6,"04:28:24",1
"16/04/21","04:40",0.0,12.1,87.5,1014.2,309.4,1.2,1.9,317.0,0.00,10.1,14.6,"04:34:40",1
"16/04/21","04:50",0.0,12.1,87.5,1014.5,299.5,1.1,1.6,297.5,0.00,10.1,14.5,"04:44:40",1
"16/04/21","05:00",0.0,12.1,87.2,1014.2,291.4,1.1,1.3,299.0,0.00,10.1,14.6,"04:58:32",1
"16/04/21","05:10",0.0,12.1,87.0,1014.0,295.7,0.7,1.3,316.8,0.00,10.0,14.5,"05:00:08",1
"16/04/21","05:20",0.0,12.0,87.7,1014.0,314.6,1.5,2.1,322.7,0.00,10.1,14.5,"05:12:08",1
"16/04/21","05:30",0.0,12.1,87.7,1014.2,309.1,1.1,1.6,327.1,0.00,10.2,14.6,"05:20:16",1
"16/04/21","05:40",0.0,12.4,87.5,1014.0,331.5,1.5,2.4,334.0,0.00,10.4,14.6,"05:35:36",1
"16/04/21","05:50",0.0,12.3,87.9,1013.8,320.2,1.3,1.7,323.7,0.00,10.4,14.4,"05:43:04",1
"16/04/21","06:00",0.0,12.5,87.9,1013.0,330.4,1.0,2.0,306.4,0.00,10.6,14.3,"05:59:12",1
"16/04/21","06:10",0.0,12.6,87.4,1013.0,281.3,1.3,2.7,275.5,0.00,10.6,14.3,"06:08:00",1
"16/04/21","06:20",0.0,12.9,85.8,1012.8,291.3,1.3,3.2,312.6,0.00,10.6,14.5,"06:12:32",1
"16/04/21","06:30",0.0,13.2,85.1,1013.0,310.0,1.5,2.2,335.1,0.00,10.8,14.5,"06:24:48",1
"16/04/21","06:40",0.0,13.3,85.7,1012.8,316.4,1.1,1.4,308.7,0.01,11.0,14.3,"06:38:08",1
"16/04/21","06:50",0.0,13.3,85.3,1013.0,315.0,0.8,1.6,317.4,0.02,10.9,14.4,"06:49:52",1
"16/04/21","07:00",0.0,13.7,84.1,1012.8,304.0,1.3,1.9,316.3,0.05,11.1,14.3,"06:54:48",1
"16/04/21","07:10",0.0,14.3,82.3,1012.8,284.0,1.2,1.8,299.1,0.07,11.4,14.5,"07:07:12",1
"16/04/21","07:20",0.0,14.9,80.0,1013.0,305.2,1.5,1.9,302.0,0.05,11.5,14.5,"07:11:52",1
"16/04/21","07:30",0.0,15.0,79.5,1012.8,343.1,1.1,1.9,334.9,0.03,11.5,14.4,"07:21:20",1
"16/04/21","07:40",0.0,15.2,79.1,1012.8,320.9,0.6,1.1,335.8,0.05,11.6,14.8,"07:33:52",1
"16/04/21","07:50",0.0,15.6,76.8,1012.3,265.6,0.5,0.9,262.5,0.07,11.6,14.6,"07:40:08",1
"16/04/21","08:00",0.0,15.7,75.8,1012.1,279.8,0.8,1.2,279.4,0.04,11.5,14.8,"07:54:08",1
"16/04/21","08:10",0.0,15.8,76.6,1012.3,283.4,1.0,1.6,255.0,0.04,11.7,14.6,"08:04:08",1
"16/04/21","08:20",0.0,15.8,75.2,1012.6,293.1,1.2,1.6,311.7,0.04,11.5,14.8,"08:13:36",1
"16/04/21","08:30",0.0,15.8,75.1,1012.6,303.2,1.3,2.5,331.0,0.04,11.4,14.8,"08:26:48",1
"16/04/21","08:40",0.0,16.0,74.8,1012.3,295.9,1.3,2.0,317.8,0.06,11.6,15.0,"08:38:24",1
"16/04/21","08:50",0.0,16.5,74.8,1012.8,296.7,1.1,2.0,318.8,0.09,12.1,15.2,"08:46:40",1
"16/04/21","09:00",0.0,16.4,73.8,1012.8,295.7,1.2,2.0,306.5,0.04,11.8,15.0,"08:54:32",1
"16/04/21","09:10",0.0,16.4,74.0,1012.8,289.3,1.0,1.3,312.4,0.03,11.8,14.7,"09:01:36",1
"16/04/21","09:20",0.0,16.5,75.3,1012.6,288.4,0.7,1.2,274.2,0.02,12.2,14.8,"09:10:56",1
"16/04/21","09:30",0.0,16.5,76.7,1012.6,308.9,0.6,1.1,266.6,0.02,12.4,15.1,"09:29:36",1
"16/04/21","09:40",0.0,16.4,79.6,1012.3,314.8,1.0,1.2,318.4,0.02,12.9,15.2,"09:32:48",1
"16/04/21","09:50",0.0,16.2,81.2,1011.4,336.1,1.1,2.1,343.2,0.04,13.0,15.1,"09:47:44",1
"16/04/21","10:00",0.0,16.0,81.8,1010.9,294.5,1.1,1.7,323.6,0.04,12.9,15.1,"09:52:56",1
"16/04/21","10:10",0.2,16.0,83.7,1011.9,250.0,1.2,2.5,255.1,0.04,13.3,15.1,"10:07:28",1
"16/04/21","10:20",0.0,15.7,83.4,1011.9,280.7,1.2,1.7,255.5,0.03,12.9,15.1,"10:11:04",1
"16/04/21","10:30",0.2,15.7,85.7,1011.6,313.8,1.1,1.9,336.3,0.03,13.4,15.1,"10:29:36",1
"16/04/21","10:40",0.0,15.6,87.0,1011.2,327.7,1.0,2.0,339.5,0.03,13.5,15.3,"10:31:04",1
"16/04/21","10:50",0.2,15.7,87.5,1010.9,334.7,0.8,1.3,346.8,0.04,13.7,15.2,"10:47:28",1
"16/04/21","11:00",0.2,15.8,88.3,1010.2,347.9,0.7,1.7,340.9,0.05,13.9,15.3,"10:55:44",1
"16/04/21","11:10",0.2,15.9,88.4,1010.0,302.9,1.2,1.9,313.6,0.06,14.0,15.3,"11:00:56",1
"16/04/21","11:20",0.0,15.8,88.7,1010.2,273.5,1.3,2.2,293.1,0.05,14.0,15.2,"11:18:24",1
"16/04/21","11:30",0.0,15.7,89.3,1008.8,236.2,1.5,2.0,245.6,0.09,14.0,15.2,"11:23:28",1
"16/04/21","11:40",0.2,16.0,88.7,1009.0,224.3,1.0,1.9,243.9,0.13,14.2,15.3,"11:32:24",1
"16/04/21","11:50",0.0,16.2,86.4,1009.7,244.1,1.5,2.7,230.0,0.09,14.0,15.3,"11:43:28",1
"16/04/21","12:00",0.2,16.2,86.6,1008.8,245.1,0.7,1.4,246.1,0.06,14.0,15.2,"11:57:04",1
"16/04/21","12:10",0.2,16.1,86.6,1009.3,139.3,1.0,2.7,128.3,0.04,13.9,15.3,"12:04:08",1
"16/04/21","12:20",0.4,16.0,85.8,1008.1,218.8,1.3,2.8,106.4,0.03,13.7,15.4,"12:17:44",1
"16/04/21","12:30",0.2,15.9,86.7,1008.6,137.2,1.1,2.6,71.6,0.04,13.7,15.3,"12:20:08",1
"16/04/21","12:40",0.4,16.0,87.5,1008.6,144.7,1.5,2.8,116.5,0.04,14.0,15.4,"12:34:16",1
"16/04/21","12:50",0.4,15.9,88.1,1008.3,217.0,1.3,2.2,130.1,0.04,14.0,15.4,"12:47:14",1
"16/04/21","13:00",0.2,15.9,88.9,1008.1,191.9,1.6,2.2,196.3,0.03,14.1,15.2,"12:59:04",1
"16/04/21","13:10",0.4,15.8,89.6,1007.4,149.3,2.0,2.8,139.0,0.04,14.1,15.6,"13:09:12",1
"16/04/21","13:20",0.4,15.7,89.8,1007.4,160.5,2.5,4.3,128.3,0.04,14.1,15.5,"13:19:32",1
"16/04/21","13:30",0.4,15.8,88.9,1007.6,154.4,1.3,4.1,126.6,0.03,14.0,15.6,"13:20:08",1
"16/04/21","13:40",0.4,15.6,88.8,1006.9,124.4,1.3,2.7,136.2,0.04,13.8,15.5,"13:31:46",1
"16/04/21","13:50",0.2,15.5,88.7,1006.2,130.3,1.3,2.7,118.2,0.04,13.7,15.6,"13:48:18",1
"16/04/21","14:00",0.6,15.5,86.1,1006.2,112.7,2.0,5.1,134.7,0.04,13.2,15.3,"13:50:24",1
"16/04/21","14:10",0.2,15.6,87.1,1006.0,123.9,0.8,1.6,130.8,0.05,13.5,15.5,"14:04:18",1
"16/04/21","14:20",0.4,15.6,86.3,1005.7,125.0,1.3,2.9,116.3,0.07,13.4,15.3,"14:14:18",1
"16/04/21","14:30",0.0,15.9,85.5,1005.7,120.9,1.3,3.3,109.8,0.09,13.5,15.4,"14:23:04",1
"16/04/21","14:40",0.2,15.9,85.8,1005.5,131.3,1.5,2.7,112.9,0.07,13.6,15.7,"14:38:16",1
"16/04/21","14:50",0.0,16.0,86.5,1005.2,114.5,1.2,3.5,108.4,0.08,13.8,15.7,"14:45:28",1
"16/04/21","15:00",0.0,16.0,86.9,1004.8,99.0,1.2,2.7,115.8,0.12,13.9,15.6,"14:55:16",1
"16/04/21","15:10",0.0,16.1,86.7,1004.3,108.8,1.2,2.5,114.7,0.09,13.9,15.6,"15:06:12",1
"16/04/21","15:20",0.0,16.1,85.0,1004.1,108.4,1.7,3.4,112.0,0.07,13.6,15.7,"15:18:08",1
"16/04/21","15:30",0.0,15.9,85.9,1003.8,72.3,1.0,2.2,51.1,0.05,13.6,15.6,"15:28:24",1
"16/04/21","15:40",0.0,15.8,86.3,1003.6,22.2,0.6,1.3,85.1,0.03,13.6,15.6,"15:37:12",1
"16/04/21","15:50",0.0,15.8,87.2,1003.4,26.2,0.3,1.3,5.2,0.05,13.7,15.7,"15:43:12",1
"16/04/21","16:00",0.2,15.7,88.0,1002.9,18.8,0.6,1.3,5.6,0.02,13.8,15.5,"15:53:12",1
"16/04/21","16:10",0.0,15.7,88.7,1002.9,345.6,0.8,1.8,349.2,0.03,13.9,15.6,"16:07:28",1
"16/04/21","16:20",0.0,15.7,88.6,1002.9,37.2,0.8,1.4,69.3,0.02,13.9,15.7,"16:15:52",1
"16/04/21","16:30",0.0,15.6,88.7,1002.4,50.5,0.5,1.2,116.1,0.01,13.8,15.6,"16:29:04",1
"16/04/21","16:40",0.2,15.6,89.5,1002.2,24.8,0.5,1.0,84.9,0.01,13.9,15.7,"16:33:36",1
"16/04/21","16:50",0.2,15.6,90.2,1001.9,40.1,0.6,1.4,24.4,0.00,14.0,15.7,"16:46:16",1
"16/04/21","17:00",0.4,15.5,89.8,1001.9,46.3,0.6,1.8,41.3,0.00,13.9,15.7,"16:56:16",1
"16/04/21","17:10",0.2,15.4,89.6,1001.9,53.8,1.2,2.7,120.2,0.00,13.7,15.8,"17:01:04",1
"16/04/21","17:20",0.2,15.3,90.3,1001.7,354.9,0.7,1.7,333.6,0.00,13.8,15.6,"17:10:08",1
"16/04/21","17:30",0.2,15.2,90.7,1001.5,348.8,0.6,1.4,337.9,0.00,13.7,15.7,"17:29:12",1
"16/04/21","17:40",0.4,15.1,91.0,1001.2,343.1,0.8,1.7,342.8,0.00,13.7,15.5,"17:30:48",1
"16/04/21","17:50",0.0,15.0,91.4,1001.0,324.7,0.8,1.4,338.7,0.00,13.7,15.5,"17:44:08",1
"16/04/21","18:00",0.4,14.9,91.8,1001.0,305.4,1.0,1.6,306.2,0.00,13.6,15.5,"17:59:20",1
"16/04/21","18:10",0.8,14.7,92.4,1001.2,300.8,1.2,1.7,345.9,0.00,13.5,15.6,"18:06:48",1
"16/04/21","18:20",1.0,14.6,92.9,1001.2,301.3,0.8,1.4,319.2,0.00,13.5,15.7,"18:12:48",1
"16/04/21","18:30",0.2,14.6,93.4,1001.0,308.5,0.8,1.6,346.9,0.00,13.6,15.6,"18:28:00",1
"16/04/21","18:40",0.2,14.4,93.8,1000.5,280.4,0.7,1.4,306.6,0.00,13.5,15.4,"18:39:04",1
"16/04/21","18:50",0.6,14.4,94.2,1000.8,315.9,1.0,1.7,260.5,0.00,13.5,15.4,"18:45:44",1
"16/04/21","19:00",0.6,14.4,94.5,1000.0,314.4,1.2,2.0,319.6,0.00,13.6,15.3,"18:56:40",1
"16/04/21","19:10",0.2,14.3,94.7,999.6,302.0,1.1,2.5,340.8,0.00,13.5,15.5,"19:08:30",1
"16/04/21","19:20",0.2,14.4,94.8,999.8,343.2,1.2,1.8,344.7,0.00,13.6,15.5,"19:13:52",1
"16/04/21","19:30",0.2,14.3,94.9,998.9,348.7,1.0,1.8,44.6,0.00,13.5,15.2,"19:21:52",1
"16/04/21","19:40",0.2,14.3,95.1,999.1,325.3,0.8,1.6,305.2,0.00,13.6,15.3,"19:38:00",1
"16/04/21","19:50",0.0,14.3,95.2,998.9,321.4,1.0,1.6,293.8,0.00,13.6,15.2,"19:44:10",1
"16/04/21","20:00",0.0,14.4,95.3,999.6,330.4,1.2,1.8,269.6,0.00,13.7,15.2,"19:50:48",1
"16/04/21","20:10",0.0,14.4,95.4,999.3,328.8,1.0,1.4,335.8,0.00,13.7,15.2,"20:03:20",1
"16/04/21","20:20",0.2,14.4,95.3,999.3,2.1,1.5,2.4,357.4,0.00,13.7,15.2,"20:18:08",1
"16/04/21","20:30",0.0,14.4,95.4,999.8,344.5,1.1,2.2,352.3,0.00,13.7,15.1,"20:20:40",1
"16/04/21","20:40",0.0,14.5,95.6,999.3,340.5,1.0,1.9,43.6,0.00,13.8,15.2,"20:33:28",1
"16/04/21","20:50",0.0,14.5,95.8,999.6,356.3,0.8,1.9,81.3,0.00,13.9,15.4,"20:49:44",1
"16/04/21","21:00",0.2,14.6,95.7,999.3,20.2,1.5,2.0,88.1,0.00,14.0,15.2,"20:50:48",1
"16/04/21","21:10",0.0,14.5,95.7,999.3,7.9,1.0,1.9,4.3,0.00,13.9,15.2,"21:01:52",1
"16/04/21","21:20",0.2,14.6,95.9,999.1,37.0,0.8,1.6,350.7,0.00,14.0,15.2,"21:19:04",1
"16/04/21","21:30",0.4,14.5,96.0,999.3,24.3,1.3,2.1,46.9,0.00,13.9,15.1,"21:25:30",1
"16/04/21","21:40",0.2,14.5,96.1,999.3,19.7,1.2,2.5,47.7,0.00,13.9,15.0,"21:39:46",1
"16/04/21","21:50",0.0,14.5,96.2,999.1,19.0,1.5,2.2,35.0,0.00,13.9,15.1,"21:40:08",1
"16/04/21","22:00",0.2,14.6,96.4,998.9,19.4,1.5,2.4,19.3,0.00,14.1,15.2,"21:53:22",1
"16/04/21","22:10",0.0,14.6,96.4,998.9,21.6,1.3,2.1,14.6,0.00,14.1,15.1,"22:01:46",1
"16/04/21","22:20",0.2,14.6,96.5,998.6,38.2,0.7,1.7,52.7,0.00,14.1,15.2,"22:12:56",1
"16/04/21","22:30",0.0,14.7,96.5,998.4,58.9,1.1,1.6,68.1,0.00,14.2,15.1,"22:20:02",1
"16/04/21","22:40",0.0,14.8,96.5,998.6,56.5,1.8,2.4,32.0,0.00,14.3,15.1,"22:37:36",1
"16/04/21","22:50",0.0,14.8,96.6,998.4,54.6,1.6,2.2,38.3,0.00,14.3,15.0,"22:45:12",1
"16/04/21","23:00",0.0,14.8,96.5,998.2,43.4,1.1,1.8,36.1,0.00,14.3,15.1,"22:59:52",1
"16/04/21","23:10",0.0,14.8,96.6,998.2,303.6,0.8,2.0,38.6,0.00,14.3,15.2,"23:00:40",1
"16/04/21","23:20",0.0,14.8,96.6,998.6,275.5,0.6,1.3,328.5,0.00,14.3,15.0,"23:10:48",1
"16/04/21","23:30",0.0,14.8,96.7,998.2,214.9,0.7,1.2,193.6,0.00,14.3,15.0,"23:28:00",1
"16/04/21","23:40",0.6,14.9,96.7,998.4,238.2,0.5,1.3,226.8,0.00,14.4,15.0,"23:30:24",1
"16/04/21","23:50",0.2,14.9,96.8,998.2,283.1,0.2,0.5,287.6,0.00,14.4,15.2,"23:46:08",1
"16/04/21","24:00",0.0,14.9,96.8,998.2,327.3,0.7,1.1,298.2,0.00,14.4,15.1,"23:59:44",1
